When you browse on this site, cookies collect data to enhance your experience and personalize the content and advertising you see.
Visit our Privacy Policy to learn more. By continuing to use the site, you agree to this use of cookies and data.
  • In Hungary
  • List of Countries
  • For 7 days
  • Water Temperature
  • Satellite Maps
  • Weather Map
  • News
  • Weather Widgets
  • user-avatar
    Login

    Hourly Weather Uhlove

    Today, 17 July, Wednesday

    Time Temperature Precipitation Wind Pressure Humidity
    00:00 +18°C° 0 mm 2 mps 751 mmHg 78%
    01:00 +18°C° 0 mm 2 mps 751 mmHg 77%
    02:00 +19°C° 0 mm 1 mps 751 mmHg 75%
    03:00 +19°C° 0 mm 1 mps 751 mmHg 73%
    04:00 +19°C° 0 mm 1 mps 751 mmHg 72%
    05:00 +19°C° 0 mm 1 mps 751 mmHg 70%
    06:00 +21°C° 0 mm 1 mps 751 mmHg 64%
    07:00 +23°C° 0 mm 1 mps 751 mmHg 57%
    08:00 +26°C° 0 mm 1 mps 751 mmHg 50%
    09:00 +27°C° 0 mm 1 mps 751 mmHg 46%
    10:00 +28°C° 0 mm 2 mps 751 mmHg 42%
    11:00 +29°C° 0 mm 3 mps 751 mmHg 38%
    12:00 +29°C° 0 mm 4 mps 751 mmHg 40%
    13:00 +29°C° 0 mm 4 mps 751 mmHg 41%
    14:00 +29°C° 0 mm 5 mps 751 mmHg 43%
    15:00 +28°C° 0 mm 4 mps 750 mmHg 44%
    16:00 +28°C° 0 mm 4 mps 750 mmHg 45%
    17:00 +27°C° 0 mm 3 mps 750 mmHg 46%
    18:00 +26°C° 0 mm 3 mps 750 mmHg 53%
    19:00 +24°C° 0 mm 3 mps 750 mmHg 61%
    20:00 +21°C° 0 mm 3 mps 750 mmHg 68%
    21:00 +21°C° 0 mm 3 mps 751 mmHg 68%
    22:00 +20°C° 0 mm 3 mps 751 mmHg 68%
    23:00 +20°C° 0 mm 3 mps 751 mmHg 69%

    Tomorrow, 18 July, Thursday

    Time Temperature Precipitation Wind Pressure Humidity
    00:00 +20°C° 0 mm 3 mps 751 mmHg 70%
    01:00 +19°C° 0 mm 2 mps 751 mmHg 71%
    02:00 +19°C° 0 mm 2 mps 751 mmHg 72%
    03:00 +19°C° 0 mm 2 mps 750 mmHg 72%
    04:00 +19°C° 0 mm 2 mps 750 mmHg 72%
    05:00 +19°C° 0 mm 2 mps 750 mmHg 72%
    06:00 +21°C° 0 mm 2 mps 751 mmHg 62%
    07:00 +25°C° 0 mm 2 mps 751 mmHg 53%
    08:00 +27°C° 0 mm 2 mps 751 mmHg 43%
    09:00 +28°C° 0 mm 3 mps 752 mmHg 39%
    10:00 +29°C° 0 mm 3 mps 752 mmHg 35%
    11:00 +30°C° 0 mm 4 mps 752 mmHg 31%
    12:00 +30°C° 0 mm 4 mps 752 mmHg 34%
    13:00 +30°C° 0 mm 5 mps 752 mmHg 36%
    14:00 +29°C° 0 mm 6 mps 752 mmHg 38%
    15:00 +29°C° 0 mm 6 mps 753 mmHg 42%
    16:00 +28°C° 0 mm 6 mps 753 mmHg 46%
    17:00 +27°C° 0 mm 6 mps 753 mmHg 50%
    18:00 +26°C° 0 mm 5 mps 753 mmHg 53%
    19:00 +25°C° 0 mm 4 mps 753 mmHg 56%
    20:00 +23°C° 0 mm 4 mps 754 mmHg 59%
    21:00 +22°C° 0 mm 3 mps 754 mmHg 61%
    22:00 +21°C° 0 mm 3 mps 754 mmHg 63%
    23:00 +20°C° 0 mm 2 mps 755 mmHg 65%

    Day after tomorrow, 19 July, Friday

    Time Temperature Precipitation Wind Pressure Humidity
    00:00 +19°C° 0 mm 2 mps 755 mmHg 65%
    01:00 +19°C° 0 mm 2 mps 755 mmHg 66%
    02:00 +19°C° 0 mm 2 mps 755 mmHg 66%
    03:00 +19°C° 0 mm 2 mps 755 mmHg 67%
    04:00 +20°C° 0 mm 1 mps 755 mmHg 67%
    05:00 +20°C° 0 mm 1 mps 756 mmHg 68%
    06:00 +21°C° 0 mm 2 mps 756 mmHg 60%
    07:00 +24°C° 0 mm 2 mps 756 mmHg 52%
    08:00 +27°C° 0 mm 2 mps 756 mmHg 45%
    09:00 +28°C° 0 mm 3 mps 757 mmHg 40%
    10:00 +29°C° 0 mm 3 mps 757 mmHg 36%
    11:00 +30°C° 0 mm 3 mps 757 mmHg 32%
    12:00 +32°C° 0 mm 4 mps 757 mmHg 32%
    13:00 +32°C° 0 mm 5 mps 757 mmHg 32%
    14:00 +32°C° 0 mm 6 mps 757 mmHg 33%
    15:00 +30°C° 0 mm 6 mps 757 mmHg 34%
    16:00 +30°C° 0 mm 5 mps 757 mmHg 35%
    17:00 +29°C° 0 mm 5 mps 757 mmHg 37%
    18:00 +27°C° 0 mm 4 mps 757 mmHg 43%
    19:00 +25°C° 0 mm 4 mps 757 mmHg 48%
    20:00 +24°C° 0 mm 3 mps 758 mmHg 54%
    21:00 +22°C° 0 mm 3 mps 758 mmHg 56%
    22:00 +21°C° 0 mm 3 mps 758 mmHg 58%
    23:00 +20°C° 0 mm 3 mps 758 mmHg 59%

    20 July, Saturday

    Time Temperature Precipitation Wind Pressure Humidity
    00:00 +20°C° 0 mm 2 mps 758 mmHg 59%
    01:00 +20°C° 0 mm 2 mps 758 mmHg 59%
    02:00 +20°C° 0 mm 2 mps 758 mmHg 59%
    03:00 +20°C° 0 mm 2 mps 758 mmHg 59%
    04:00 +20°C° 0 mm 2 mps 758 mmHg 59%
    05:00 +20°C° 0 mm 2 mps 758 mmHg 59%
    06:00 +24°C° 0 mm 2 mps 758 mmHg 51%
    07:00 +26°C° 0 mm 1 mps 758 mmHg 44%
    08:00 +29°C° 0 mm 1 mps 758 mmHg 36%
    09:00 +30°C° 0 mm 2 mps 759 mmHg 34%
    10:00 +31°C° 0 mm 2 mps 759 mmHg 31%
    11:00 +33°C° 0 mm 3 mps 759 mmHg 28%
    12:00 +33°C° 0 mm 3 mps 759 mmHg 30%
    13:00 +32°C° 0 mm 4 mps 759 mmHg 32%
    14:00 +32°C° 0 mm 4 mps 758 mmHg 34%
    15:00 +30°C° 0 mm 4 mps 758 mmHg 37%
    16:00 +29°C° 0 mm 4 mps 758 mmHg 40%
    17:00 +29°C° 0 mm 4 mps 758 mmHg 42%
    18:00 +27°C° 0 mm 3 mps 758 mmHg 47%
    19:00 +25°C° 0 mm 2 mps 758 mmHg 52%
    20:00 +23°C° 0 mm 2 mps 758 mmHg 57%
    21:00 +23°C° 0 mm 1 mps 758 mmHg 57%
    22:00 +23°C° 0 mm 1 mps 758 mmHg 57%
    23:00 +22°C° 0 mm 1 mps 758 mmHg 57%

    21 July, Sunday

    Time Temperature Precipitation Wind Pressure Humidity
    00:00 +21°C° 0 mm 2 mps 758 mmHg 56%
    01:00 +20°C° 0 mm 2 mps 758 mmHg 56%
    02:00 +20°C° 0 mm 3 mps 758 mmHg 55%
    03:00 +20°C° 0 mm 3 mps 758 mmHg 54%
    04:00 +20°C° 0 mm 3 mps 758 mmHg 52%
    05:00 +20°C° 0 mm 3 mps 758 mmHg 51%
    06:00 +22°C° 0 mm 4 mps 758 mmHg 48%
    07:00 +26°C° 0 mm 4 mps 758 mmHg 44%
    08:00 +29°C° 0 mm 4 mps 758 mmHg 40%
    09:00 +30°C° 0 mm 4 mps 758 mmHg 36%
    10:00 +33°C° 0 mm 4 mps 758 mmHg 32%
    11:00 +34°C° 0 mm 4 mps 758 mmHg 28%
    12:00 +34°C° 0 mm 5 mps 758 mmHg 27%
    13:00 +34°C° 0 mm 6 mps 757 mmHg 27%
    14:00 +35°C° 0 mm 6 mps 757 mmHg 27%
    15:00 +34°C° 0 mm 6 mps 757 mmHg 29%
    16:00 +34°C° 0 mm 5 mps 757 mmHg 30%
    17:00 +33°C° 0 mm 4 mps 757 mmHg 31%
    18:00 +30°C° 0 mm 4 mps 757 mmHg 37%
    19:00 +27°C° 0 mm 3 mps 757 mmHg 43%
    20:00 +25°C° 0 mm 3 mps 757 mmHg 49%
    21:00 +24°C° 0 mm 3 mps 757 mmHg 48%
    22:00 +24°C° 0 mm 2 mps 757 mmHg 48%
    23:00 +23°C° 0 mm 2 mps 757 mmHg 47%

    22 July, Monday

    Time Temperature Precipitation Wind Pressure Humidity
    00:00 +23°C° 0 mm 2 mps 757 mmHg 47%
    01:00 +23°C° 0 mm 2 mps 757 mmHg 46%
    02:00 +23°C° 0 mm 2 mps 757 mmHg 46%
    03:00 +23°C° 0 mm 2 mps 757 mmHg 47%
    04:00 +23°C° 0 mm 2 mps 757 mmHg 47%
    05:00 +23°C° 0 mm 2 mps 757 mmHg 48%
    06:00 +25°C° 0 mm 2 mps 757 mmHg 44%
    07:00 +28°C° 0 mm 2 mps 757 mmHg 39%
    08:00 +31°C° 0 mm 2 mps 757 mmHg 35%
    09:00 +33°C° 0 mm 3 mps 757 mmHg 32%
    10:00 +34°C° 0 mm 3 mps 757 mmHg 30%
    11:00 +35°C° 0 mm 3 mps 757 mmHg 28%
    12:00 +35°C° 0 mm 4 mps 757 mmHg 28%
    13:00 +35°C° 0 mm 5 mps 757 mmHg 29%
    14:00 +35°C° 0 mm 5 mps 756 mmHg 29%
    15:00 +34°C° 0 mm 5 mps 756 mmHg 33%
    16:00 +33°C° 0 mm 5 mps 756 mmHg 36%
    17:00 +32°C° 0 mm 5 mps 756 mmHg 39%
    18:00 +29°C° 0 mm 4 mps 756 mmHg 45%
    19:00 +27°C° 0 mm 3 mps 756 mmHg 52%
    20:00 +25°C° 0 mm 3 mps 756 mmHg 58%
    21:00 +25°C° 0 mm 3 mps 755 mmHg 58%
    22:00 +25°C° 0 mm 2 mps 755 mmHg 59%
    23:00 +24°C° 0 mm 2 mps 755 mmHg 60%
    Show more